Location: ??????????
(44.2167°N, 135.5333°E)
Time: 15:03:41
(UTC+00:00)

Cosmos 1844 Rocket - Pass Details

Date: 15 June 2025
Orbit: 822 x 844 km, 71.0° (Epoch: 16 July)

Event Time Altitude Azimuth Distance (km) Brightness Sun altitude
Exits shadow 14:09:18 44° 185° (S) 1,144 2.9 -21.5°
Maximum altitude 14:11:06 74° 112° (ESE) 878 2.6 -21.6°
Drops below altitude 10° 14:16:45 10° 29° (NNE) 2,472 5.8 -21.8°
Sets 14:19:13 0° 27° (NNE) 3,412 6.7 -21.9°
